WetterOnline ( http://www.wetteronline.de )

Wetter aktuell Garmisch-Partenkirchen

Aktuelles Wetter: Garmisch-Partenkirchen (719m)

6-stündlich | Neueste Meldungen
Ortszeit Temperatur Wetter
Di, 17.07. 8:00 15.0° C leicht bewölkt
Di, 17.07. 2:00 13.9° C wolkig
Mo, 16.07. 20:00 19.1° C leichter Regen
Mo, 16.07. 14:00 21.4° C wolkig
Mo, 16.07. 8:00 14.4° C wolkig
Mo, 16.07. 2:00 13.2° C bedeckt
So, 15.07. 20:00 17.5° C wolkig
So, 15.07. 14:00 25.0° C leicht bewölkt
Ortszeit Temperatur Wetter
Di, 17.07. 8:00 15.0° C leicht bewölkt
Di, 17.07. 7:50 15.0° C leicht bewölkt
Di, 17.07. 7:40 14.7° C leicht bewölkt
Di, 17.07. 7:30 13.9° C leicht bewölkt
Di, 17.07. 7:20 13.9° C leicht bewölkt
Di, 17.07. 7:10 13.5° C leicht bewölkt
Di, 17.07. 7:00 13.4° C bewölkt
Di, 17.07. 6:30 13.1° C bewölkt
Di, 17.07. 6:00 13.3° C bewölkt
Di, 17.07. 5:30 13.5° C bewölkt
Di, 17.07. 5:00 13.5° C bedeckt
Ortszeit Relative Feuchte Sichtweite
Di, 17.07. 8:00 93% 22 km
Di, 17.07. 2:00 97% 21 km
Mo, 16.07. 20:00 76% 40 km
Mo, 16.07. 14:00 61% 70 km
Mo, 16.07. 8:00 87% 70 km
Mo, 16.07. 2:00 92% 45 km
So, 15.07. 20:00 81% 45 km
So, 15.07. 14:00 38% 50 km
Ortszeit Relative Feuchte Sichtweite
Di, 17.07. 8:00 93% 22 km
Di, 17.07. 7:50 93% -
Di, 17.07. 7:40 93% -
Di, 17.07. 7:30 96% 20 km
Di, 17.07. 7:20 96% -
Di, 17.07. 7:10 96% -
Di, 17.07. 7:00 97% 17 km
Di, 17.07. 6:30 97% 12 km
Di, 17.07. 6:00 97% 22 km
Di, 17.07. 5:30 96% 30 km
Di, 17.07. 5:00 97% 24 km
Ortszeit Niederschlagsmenge Niederschlagsart
Di, 17.07. 8:00 0.7 l/m2 in 12 Std. -
Di, 17.07. 2:00 0.7 l/m2 in 6 Std. Regen
Mo, 16.07. 20:00 2 l/m2 in 12 Std. Regen
Mo, 16.07. 14:00 0.1 l/m2 in 6 Std. Regen
Mo, 16.07. 8:00 0.5 l/m2 in 12 Std. Regen
Mo, 16.07. 2:00 0.5 l/m2 in 6 Std. Regen
So, 15.07. 20:00 2 l/m2 in 12 Std. Regenschauer
So, 15.07. 14:00 0.1 l/m2 in 6 Std. Regen
Ortszeit Niederschlagsmenge Niederschlagsart
Di, 17.07. 8:00 0.0 l/m2 in 1 Std. -
Di, 17.07. 7:50 keine Meldung -
Di, 17.07. 7:40 keine Meldung -
Di, 17.07. 7:30 0.0 l/m2 in 1 Std. -
Di, 17.07. 7:20 keine Meldung -
Di, 17.07. 7:10 keine Meldung -
Di, 17.07. 7:00 0.0 l/m2 in 1 Std. -
Di, 17.07. 6:30 0.0 l/m2 in 1 Std. -
Di, 17.07. 6:00 0.0 l/m2 in 1 Std. -
Di, 17.07. 5:30 0.0 l/m2 in 1 Std. -
Di, 17.07. 5:00 0.0 l/m2 in 1 Std. -
Ortszeit Stärke Spitze Richtung
km/h Bft. km/h Grad Sektor
Di, 17.07. 8:00 0 0 7 - -
Di, 17.07. 2:00 4 1 14 260° W
Mo, 16.07. 20:00 7 2 32 50° NO
Mo, 16.07. 14:00 14 3 25 60° NO
Mo, 16.07. 8:00 4 1 11 240° SW
Mo, 16.07. 2:00 4 1 22 240° SW
So, 15.07. 20:00 6 1 35 40° NO
So, 15.07. 14:00 7 2 17 30° NO
Ortszeit Stärke Spitze Richtung
km/h Bft. km/h Grad Sektor
Di, 17.07. 8:00 0 0 4 - -
Di, 17.07. 7:50 2 1 - 220° SW
Di, 17.07. 7:40 2 1 - 250° W
Di, 17.07. 7:30 0 0 4 - -
Di, 17.07. 7:20 0 0 - 330° NW
Di, 17.07. 7:10 2 1 - 50° NO
Di, 17.07. 7:00 2 1 4 260° W
Di, 17.07. 6:30 2 1 4 260° W
Di, 17.07. 6:00 0 0 7 - -
Di, 17.07. 5:30 4 1 7 260° W
Di, 17.07. 5:00 2 1 6 260° W
Ortszeit Untergrenze Bedeckung Gattung
total tief tief mittel hoch
Di, 17.07. 8:00 3000 m 6/8 1/8 - - -
Di, 17.07. 2:00 1800 m 8/8 3/8 - - -
Mo, 16.07. 20:00 1350 m 8/8 7/8 - - -
Mo, 16.07. 14:00 3300 m 6/8 6/8 - - -
Mo, 16.07. 8:00 2100 m 6/8 5/8 - - -
Mo, 16.07. 2:00 3000 m 8/8 8/8 - - -
So, 15.07. 20:00 2100 m 8/8 2/8 - - -
So, 15.07. 14:00 3300 m 5/8 2/8 - - -
Ortszeit Bedeckungsgrad in Achtel und Wolkenuntergrenze
Di, 17.07. 8:00 1(3000m) 5(9000m) 6(9000m)
Di, 17.07. 7:50 1(3000m) 5(9000m) 6(9000m)
Di, 17.07. 7:40 1(3000m) 5(9000m)
Di, 17.07. 7:30 2(2100m) 2(9000m)
Di, 17.07. 7:20 2(2100m) 2(2700m)
Di, 17.07. 7:10 4(2100m)
Di, 17.07. 7:00 5(2100m) 7(2400m) 7(9000m)
Di, 17.07. 6:30 7(2100m) 8(9000m)
Di, 17.07. 6:00 7(2100m) 7(2700m)
Di, 17.07. 5:30 8(2100m) 7(2700m)
Di, 17.07. 5:00 7(2100m) 8(2700m)
Ortszeit Luftdruck NN (hPa) Tendenz (hPa in 3 Std.)
Di, 17.07. 8:00 1016 + 0,8
Di, 17.07. 2:00 1015 + 1,1
Mo, 16.07. 20:00 1011 - 0,1
Mo, 16.07. 14:00 1011 - 1,6
Mo, 16.07. 8:00 1016 + 0,5
Mo, 16.07. 2:00 1017 + 0,5
So, 15.07. 20:00 1015 + 1,5
So, 15.07. 14:00 1013 - 2,1
Ortszeit Luftdruck NN (hPa) Tendenz (hPa in 3 Std.)
Di, 17.07. 8:00 1016 + 0,8
Di, 17.07. 7:50 1016 keine Meldung
Di, 17.07. 7:40 1016 keine Meldung
Di, 17.07. 7:30 1016 + 0,9
Di, 17.07. 7:20 1016 keine Meldung
Di, 17.07. 7:10 1016 keine Meldung
Di, 17.07. 7:00 1016 + 0,8
Di, 17.07. 6:30 1016 + 0,7
Di, 17.07. 6:00 1016 + 0,8
Di, 17.07. 5:30 1015 + 0,5
Di, 17.07. 5:00 1015 + 0,5
Ortszeit Schneehöhe (cm)
Di, 17.07. 8:00 -
Di, 17.07. 2:00 -
Mo, 16.07. 20:00 -
Mo, 16.07. 14:00 -
Mo, 16.07. 8:00 -
Mo, 16.07. 2:00 -
So, 15.07. 20:00 -
So, 15.07. 14:00 -
Ortszeit Schneehöhe (cm)
Di, 17.07. 8:00 -
Di, 17.07. 7:50 -
Di, 17.07. 7:40 -
Di, 17.07. 7:30 -
Di, 17.07. 7:20 -
Di, 17.07. 7:10 -
Di, 17.07. 7:00 -
Di, 17.07. 6:30 -
Di, 17.07. 6:00 -
Di, 17.07. 5:30 -
Di, 17.07. 5:00 -
Link zu dieser Seite / Seite empfehlen

Das Wetter in ...